Time,TemperatureF,DewpointF,PressureIn,WindDirection,WindDirectionDegrees,WindSpeedMPH,WindSpeedGustMPH,Humidity,HourlyPrecipIn,Conditions,Clouds,dailyrainin,SoftwareType,DateUTC
2013-02-14 00:02:00,28.0,24.0,29.58,SSE,158,0.0,0.0,84,0.00,,,0.00,,2013-02-14 05:02:00,
2013-02-14 00:11:00,28.0,24.0,29.58,SSE,158,0.0,0.0,84,0.00,,,0.00,,2013-02-14 05:11:00,
2013-02-14 00:21:00,28.0,24.0,29.58,SSE,158,0.0,0.0,85,0.00,,,0.00,,2013-02-14 05:21:00,
2013-02-14 00:31:00,28.0,24.0,29.58,SSE,158,0.0,0.0,85,0.00,,,0.00,,2013-02-14 05:31:00,
2013-02-14 00:41:00,28.0,24.0,29.58,SSE,158,0.0,0.0,85,0.00,,,0.00,,2013-02-14 05:41:00,
2013-02-14 00:52:00,28.0,24.0,29.59,SSE,159,0.0,0.0,85,0.00,,,0.00,,2013-02-14 05:52:00,
2013-02-14 01:02:00,28.0,24.0,29.59,SSE,159,0.0,0.0,85,0.00,,,0.00,,2013-02-14 06:02:00,
2013-02-14 01:11:00,28.0,24.0,29.59,SSE,159,0.0,0.0,85,0.00,,,0.00,,2013-02-14 06:11:00,
2013-02-14 01:21:00,28.0,24.0,29.59,SSE,159,0.0,0.0,85,0.00,,,0.00,,2013-02-14 06:21:00,
2013-02-14 01:31:00,28.0,24.0,29.59,SSE,158,0.0,0.0,85,0.00,,,0.00,,2013-02-14 06:31:00,
2013-02-14 01:42:00,28.0,24.0,29.59,SSE,158,0.0,0.0,85,0.00,,,0.00,,2013-02-14 06:42:00,
2013-02-14 01:52:00,28.0,24.0,29.59,SSE,158,0.0,0.0,85,0.00,,,0.00,,2013-02-14 06:52:00,
2013-02-14 02:01:00,28.0,24.0,29.59,SSE,158,0.0,0.0,85,0.00,,,0.00,,2013-02-14 07:01:00,
2013-02-14 02:11:00,28.0,24.0,29.59,SSE,158,0.0,0.0,84,0.00,,,0.00,,2013-02-14 07:11:00,
2013-02-14 02:21:00,28.0,24.0,29.59,SSE,158,0.0,0.0,84,0.00,,,0.00,,2013-02-14 07:21:00,
2013-02-14 02:31:00,28.0,24.0,29.59,SSE,158,0.0,0.0,84,0.00,,,0.00,,2013-02-14 07:31:00,
2013-02-14 02:41:00,28.0,24.0,29.59,SSE,158,0.0,0.0,84,0.00,,,0.00,,2013-02-14 07:41:00,
2013-02-14 02:52:00,28.0,24.0,29.59,SSE,158,0.0,0.0,84,0.00,,,0.00,,2013-02-14 07:52:00,
2013-02-14 03:01:00,27.0,23.0,29.59,SSE,159,0.0,0.0,84,0.00,,,0.00,,2013-02-14 08:01:00,
2013-02-14 03:11:00,27.0,23.0,29.59,SSE,159,0.0,0.0,84,0.00,,,0.00,,2013-02-14 08:11:00,
2013-02-14 03:21:00,27.0,23.0,29.59,SSE,159,0.0,0.0,84,0.00,,,0.00,,2013-02-14 08:21:00,
2013-02-14 03:32:00,27.0,23.0,29.59,SSE,158,43.0,47.0,84,0.00,,,0.00,,2013-02-14 08:32:00,
2013-02-14 03:43:00,27.0,23.0,29.59,SSE,158,43.0,47.0,84,0.00,,,0.00,,2013-02-14 08:43:00,
2013-02-14 03:52:00,27.0,23.0,29.59,SSE,158,43.0,47.0,84,0.00,,,0.00,,2013-02-14 08:52:00,
2013-02-14 04:01:00,27.0,23.0,29.59,SSE,158,3.0,48.0,84,0.00,,,0.00,,2013-02-14 09:01:00,
2013-02-14 04:11:00,27.0,23.0,29.59,SSE,158,16.0,51.0,84,0.00,,,0.00,,2013-02-14 09:11:00,
2013-02-14 04:21:00,27.0,23.0,29.59,SSE,158,16.0,51.0,84,0.00,,,0.00,,2013-02-14 09:21:00,
2013-02-14 04:31:00,27.0,23.0,29.59,SSE,158,0.0,54.0,84,0.00,,,0.00,,2013-02-14 09:31:00,
2013-02-14 04:41:00,27.0,23.0,29.59,SSE,158,0.0,54.0,84,0.00,,,0.00,,2013-02-14 09:41:00,
2013-02-14 04:52:00,27.0,23.0,29.59,SSE,158,0.0,0.0,84,0.00,,,0.00,,2013-02-14 09:52:00,
2013-02-14 05:02:00,27.0,23.0,29.59,SSE,158,0.0,0.0,84,0.00,,,0.00,,2013-02-14 10:02:00,
2013-02-14 05:11:00,27.0,23.0,29.59,SSE,158,0.0,0.0,84,0.00,,,0.00,,2013-02-14 10:11:00,
2013-02-14 05:21:00,27.0,23.0,29.59,SSE,158,0.0,0.0,84,0.00,,,0.00,,2013-02-14 10:21:00,
2013-02-14 05:31:00,26.0,22.0,29.59,SSE,159,0.0,0.0,85,0.00,,,0.00,,2013-02-14 10:31:00,
2013-02-14 05:42:00,26.0,22.0,29.59,SSE,159,0.0,0.0,85,0.00,,,0.00,,2013-02-14 10:42:00,
2013-02-14 05:52:00,26.0,22.0,29.59,SSE,158,0.0,0.0,85,0.00,,,0.00,,2013-02-14 10:52:00,
2013-02-14 06:02:00,26.0,22.0,29.59,SSE,158,0.0,0.0,85,0.00,,,0.00,,2013-02-14 11:02:00,
2013-02-14 06:11:00,26.0,22.0,29.60,SSE,158,0.0,0.0,85,0.00,,,0.00,,2013-02-14 11:11:00,
2013-02-14 06:21:00,26.0,22.0,29.60,SSE,158,0.0,0.0,85,0.00,,,0.00,,2013-02-14 11:21:00,
2013-02-14 06:32:00,26.0,22.0,29.59,SSE,159,0.0,0.0,85,0.00,,,0.00,,2013-02-14 11:32:00,
2013-02-14 06:42:00,26.0,22.0,29.59,SSE,159,0.0,0.0,85,0.00,,,0.00,,2013-02-14 11:42:00,
2013-02-14 06:52:00,27.0,23.0,29.60,SSE,158,0.0,0.0,85,0.00,,,0.00,,2013-02-14 11:52:00,
2013-02-14 07:02:00,27.0,23.0,29.60,SSE,158,0.0,0.0,85,0.00,,,0.00,,2013-02-14 12:02:00,
2013-02-14 07:11:00,27.0,23.0,29.60,SSE,158,0.0,0.0,85,0.00,,,0.00,,2013-02-14 12:11:00,
2013-02-14 07:22:00,27.0,23.0,29.60,SSE,158,0.0,0.0,85,0.00,,,0.00,,2013-02-14 12:22:00,
2013-02-14 07:32:00,26.0,22.0,29.61,SSE,159,0.0,0.0,85,0.00,,,0.00,,2013-02-14 12:32:00,
2013-02-14 07:42:00,26.0,22.0,29.61,SSE,159,0.0,0.0,85,0.00,,,0.00,,2013-02-14 12:42:00,
2013-02-14 07:53:00,26.0,22.0,29.61,SSE,159,0.0,0.0,85,0.00,,,0.00,,2013-02-14 12:53:00,
2013-02-14 08:01:00,26.0,22.0,29.61,SSE,159,0.0,0.0,85,0.00,,,0.00,,2013-02-14 13:01:00,
2013-02-14 08:11:00,26.0,22.0,29.61,SSE,159,0.0,0.0,85,0.00,,,0.00,,2013-02-14 13:11:00,
2013-02-14 08:21:00,26.0,22.0,29.62,SSE,158,0.0,0.0,85,0.00,,,0.00,,2013-02-14 13:21:00,
2013-02-14 08:31:00,26.0,22.0,29.63,SSE,159,0.0,0.0,85,0.00,,,0.00,,2013-02-14 13:31:00,
2013-02-14 08:41:00,26.0,22.0,29.63,SSE,159,0.0,0.0,85,0.00,,,0.00,,2013-02-14 13:41:00,
2013-02-14 08:52:00,26.0,22.0,29.63,SSE,159,0.0,0.0,84,0.00,,,0.00,,2013-02-14 13:52:00,
2013-02-14 09:01:00,27.0,23.0,29.64,SSE,158,0.0,0.0,84,0.00,,,0.00,,2013-02-14 14:01:00,
2013-02-14 09:11:00,27.0,23.0,29.64,SSE,158,44.0,51.0,84,0.00,,,0.00,,2013-02-14 14:11:00,
2013-02-14 09:21:00,27.0,23.0,29.64,SSE,158,44.0,51.0,84,0.00,,,0.00,,2013-02-14 14:21:00,
2013-02-14 09:31:00,28.0,24.0,29.64,SSE,158,0.0,45.0,83,0.00,,,0.00,,2013-02-14 14:31:00,
2013-02-14 09:41:00,28.0,24.0,29.64,SSE,158,0.0,45.0,83,0.00,,,0.00,,2013-02-14 14:41:00,
2013-02-14 09:52:00,28.0,24.0,29.64,SSE,158,0.0,45.0,83,0.00,,,0.00,,2013-02-14 14:52:00,
2013-02-14 10:01:00,28.0,24.0,29.63,SSE,159,0.0,0.0,84,0.00,,,0.00,,2013-02-14 15:01:00,
2013-02-14 10:11:00,28.0,24.0,29.63,SSE,159,0.0,0.0,84,0.00,,,0.00,,2013-02-14 15:11:00,
2013-02-14 10:21:00,28.0,24.0,29.63,SSE,159,0.0,0.0,84,0.00,,,0.00,,2013-02-14 15:21:00,
2013-02-14 10:31:00,29.0,25.0,29.66,SSE,158,6.0,48.0,84,0.00,,,0.00,,2013-02-14 15:31:00,
2013-02-14 10:32:00,29.0,25.0,29.65,SSE,159,0.0,51.0,84,0.00,,,0.00,,2013-02-14 15:32:00,
2013-02-14 10:41:00,29.0,25.0,29.65,SSE,159,0.0,51.0,84,0.00,,,0.00,,2013-02-14 15:41:00,
2013-02-14 10:52:00,29.0,25.0,29.66,SSE,158,6.0,48.0,84,0.00,,,0.00,,2013-02-14 15:52:00,
2013-02-14 11:01:00,29.0,25.0,29.66,SSE,158,6.0,48.0,84,0.00,,,0.00,,2013-02-14 16:01:00,
2013-02-14 11:11:00,29.0,25.0,29.66,SSE,158,6.0,48.0,84,0.00,,,0.00,,2013-02-14 16:11:00,
2013-02-14 11:21:00,29.0,25.0,29.66,SSE,158,6.0,48.0,84,0.00,,,0.00,,2013-02-14 16:21:00,
2013-02-14 11:52:00,28.0,24.0,29.67,SSE,158,0.0,0.0,83,0.00,,,0.00,,2013-02-14 16:52:00,
2013-02-14 12:01:00,27.0,23.0,29.68,SSE,159,0.0,40.0,83,0.00,,,0.00,,2013-02-14 17:01:00,
2013-02-14 12:11:00,27.0,22.0,29.69,SSE,158,1.0,33.0,82,0.00,,,0.00,,2013-02-14 17:11:00,
2013-02-14 12:21:00,27.0,22.0,29.69,SSE,158,1.0,33.0,82,0.00,,,0.00,,2013-02-14 17:21:00,
2013-02-14 12:31:00,27.0,22.0,29.69,SSE,158,17.0,56.0,81,0.00,,,0.00,,2013-02-14 17:31:00,
2013-02-14 12:41:00,27.0,22.0,29.69,SSE,158,17.0,56.0,81,0.00,,,0.00,,2013-02-14 17:41:00,
2013-02-14 12:52:00,27.0,22.0,29.69,SSE,158,17.0,56.0,81,0.00,,,0.00,,2013-02-14 17:52:00,
2013-02-14 13:01:00,26.0,20.0,29.70,SSE,158,0.0,0.0,79,0.00,,,0.00,,2013-02-14 18:01:00,
2013-02-14 13:11:00,26.0,20.0,29.70,SSE,158,0.0,0.0,79,0.00,,,0.00,,2013-02-14 18:11:00,
2013-02-14 13:23:00,26.0,20.0,29.70,SSE,158,0.0,46.0,78,0.00,,,0.00,,2013-02-14 18:23:00,
2013-02-14 13:32:00,25.0,19.0,29.70,SSE,158,16.0,18.0,77,0.00,,,0.00,,2013-02-14 18:32:00,
2013-02-14 13:41:00,25.0,19.0,29.70,SSE,158,16.0,18.0,77,0.00,,,0.00,,2013-02-14 18:41:00,
2013-02-14 13:52:00,25.0,19.0,29.70,SSE,158,16.0,18.0,77,0.00,,,0.00,,2013-02-14 18:52:00,
2013-02-14 14:02:00,25.0,19.0,29.72,SSE,158,21.0,55.0,76,0.00,,,0.00,,2013-02-14 19:02:00,
2013-02-14 14:11:00,25.0,19.0,29.72,SSE,158,21.0,55.0,76,0.00,,,0.00,,2013-02-14 19:11:00,
2013-02-14 14:21:00,25.0,19.0,29.72,SSE,158,21.0,55.0,76,0.00,,,0.00,,2013-02-14 19:21:00,
2013-02-14 14:31:00,25.0,19.0,29.72,SSE,158,21.0,55.0,76,0.00,,,0.00,,2013-02-14 19:31:00,
2013-02-14 14:41:00,25.0,19.0,29.72,SSE,158,21.0,55.0,76,0.00,,,0.00,,2013-02-14 19:41:00,
2013-02-14 15:01:00,23.0,16.0,29.74,SSE,159,41.0,51.0,75,0.00,,,0.00,,2013-02-14 20:01:00,
2013-02-14 15:11:00,23.0,16.0,29.74,SSE,159,20.0,55.0,74,0.00,,,0.00,,2013-02-14 20:11:00,
2013-02-14 15:21:00,23.0,16.0,29.74,SSE,159,20.0,55.0,74,0.00,,,0.00,,2013-02-14 20:21:00,
2013-02-14 15:31:00,23.0,16.0,29.74,SSE,159,20.0,55.0,74,0.00,,,0.00,,2013-02-14 20:31:00,
2013-02-14 15:41:00,23.0,16.0,29.74,SSE,159,20.0,55.0,74,0.00,,,0.00,,2013-02-14 20:41:00,
2013-02-14 15:52:00,23.0,16.0,29.75,SSE,158,0.0,32.0,74,0.00,,,0.00,,2013-02-14 20:52:00,
2013-02-14 16:02:00,22.0,15.0,29.76,SSE,158,0.0,0.0,74,0.00,,,0.00,,2013-02-14 21:02:00,
2013-02-14 16:11:00,22.0,15.0,29.76,SSE,158,0.0,0.0,74,0.00,,,0.00,,2013-02-14 21:11:00,
2013-02-14 16:21:00,22.0,15.0,29.76,SSE,158,0.0,0.0,74,0.00,,,0.00,,2013-02-14 21:21:00,
2013-02-14 16:31:00,22.0,15.0,29.77,SSE,159,0.0,0.0,73,0.00,,,0.00,,2013-02-14 21:31:00,
2013-02-14 16:42:00,22.0,15.0,29.77,SSE,159,0.0,0.0,73,0.00,,,0.00,,2013-02-14 21:42:00,
2013-02-14 16:52:00,22.0,15.0,29.77,SSE,158,0.0,0.0,73,0.00,,,0.00,,2013-02-14 21:52:00,
2013-02-14 17:02:00,22.0,15.0,29.77,SSE,158,0.0,0.0,73,0.00,,,0.00,,2013-02-14 22:02:00,
2013-02-14 17:11:00,21.0,13.0,29.79,SSE,158,0.0,0.0,71,0.00,,,0.00,,2013-02-14 22:11:00,
2013-02-14 17:21:00,21.0,13.0,29.79,SSE,158,0.0,0.0,71,0.00,,,0.00,,2013-02-14 22:21:00,
2013-02-14 17:31:00,21.0,13.0,29.79,SSE,158,0.0,0.0,71,0.00,,,0.00,,2013-02-14 22:31:00,
2013-02-14 17:42:00,21.0,13.0,29.79,SSE,158,0.0,0.0,71,0.00,,,0.00,,2013-02-14 22:42:00,
2013-02-14 17:52:00,20.0,12.0,29.81,SSE,158,0.0,56.0,71,0.00,,,0.00,,2013-02-14 22:52:00,
2013-02-14 18:01:00,20.0,12.0,29.81,SSE,159,0.0,0.0,71,0.00,,,0.00,,2013-02-14 23:01:00,
2013-02-14 18:11:00,20.0,12.0,29.81,SSE,159,0.0,0.0,71,0.00,,,0.00,,2013-02-14 23:11:00,
2013-02-14 18:21:00,20.0,12.0,29.83,SSE,158,0.0,0.0,72,0.00,,,0.00,,2013-02-14 23:21:00,
2013-02-14 18:31:00,19.0,11.0,29.83,SSE,158,0.0,0.0,72,0.00,,,0.00,,2013-02-14 23:31:00,
2013-02-14 18:41:00,19.0,11.0,29.83,SSE,158,0.0,0.0,72,0.00,,,0.00,,2013-02-14 23:41:00,
2013-02-14 18:52:00,19.0,11.0,29.83,SSE,158,0.0,0.0,72,0.00,,,0.00,,2013-02-14 23:52:00,
2013-02-14 19:01:00,19.0,11.0,29.83,SSE,158,0.0,0.0,72,0.00,,,0.00,,2013-02-15 00:01:00,
2013-02-14 19:11:00,19.0,11.0,29.83,SSE,158,0.0,0.0,72,0.00,,,0.00,,2013-02-15 00:11:00,
2013-02-14 19:22:00,18.0,11.0,29.86,SSE,158,26.0,56.0,74,0.00,,,0.00,,2013-02-15 00:22:00,
2013-02-14 19:32:00,18.0,11.0,29.87,SSE,158,17.0,56.0,74,0.00,,,0.00,,2013-02-15 00:32:00,
2013-02-14 19:42:00,18.0,11.0,29.87,SSE,158,17.0,56.0,74,0.00,,,0.00,,2013-02-15 00:42:00,
2013-02-14 19:52:00,18.0,11.0,29.88,SSE,158,28.0,43.0,74,0.00,,,0.00,,2013-02-15 00:52:00,
2013-02-14 20:02:00,18.0,11.0,29.88,SSE,158,20.0,54.0,74,0.00,,,0.00,,2013-02-15 01:02:00,
2013-02-14 20:11:00,18.0,11.0,29.88,SSE,158,20.0,54.0,74,0.00,,,0.00,,2013-02-15 01:11:00,
2013-02-14 20:21:00,18.0,11.0,29.88,SSE,158,20.0,54.0,74,0.00,,,0.00,,2013-02-15 01:21:00,
2013-02-14 20:31:00,18.0,11.0,29.88,SSE,159,29.0,29.0,72,0.00,,,0.00,,2013-02-15 01:31:00,
2013-02-14 20:41:00,18.0,11.0,29.88,SSE,159,29.0,29.0,72,0.00,,,0.00,,2013-02-15 01:41:00,
2013-02-14 20:52:00,18.0,10.0,29.88,SSE,159,29.0,29.0,71,0.00,,,0.00,,2013-02-15 01:52:00,
2013-02-14 21:01:00,18.0,10.0,29.88,SSE,159,29.0,29.0,71,0.00,,,0.00,,2013-02-15 02:01:00,
2013-02-14 21:11:00,18.0,10.0,29.88,SSE,159,29.0,29.0,71,0.00,,,0.00,,2013-02-15 02:11:00,
2013-02-14 21:21:00,18.0,10.0,29.88,SSE,158,0.0,21.0,71,0.00,,,0.00,,2013-02-15 02:21:00,
2013-02-14 21:31:00,19.0,11.0,29.88,SSE,158,0.0,0.0,70,0.00,,,0.00,,2013-02-15 02:31:00,
2013-02-14 21:42:00,19.0,11.0,29.88,SSE,158,0.0,0.0,70,0.00,,,0.00,,2013-02-15 02:42:00,
2013-02-14 21:52:00,19.0,11.0,29.88,SSE,158,0.0,0.0,70,0.00,,,0.00,,2013-02-15 02:52:00,
2013-02-14 22:02:00,19.0,11.0,29.88,SSE,158,0.0,0.0,70,0.00,,,0.00,,2013-02-15 03:02:00,
2013-02-14 22:11:00,19.0,11.0,29.88,SSE,158,0.0,0.0,70,0.00,,,0.00,,2013-02-15 03:11:00,
2013-02-14 22:22:00,19.0,11.0,29.89,SSE,158,0.0,0.0,69,0.00,,,0.00,,2013-02-15 03:22:00,
2013-02-14 22:32:00,19.0,11.0,29.90,SSE,158,0.0,0.0,69,0.00,,,0.00,,2013-02-15 03:32:00,
2013-02-14 22:42:00,19.0,11.0,29.90,SSE,158,0.0,0.0,69,0.00,,,0.00,,2013-02-15 03:42:00,
2013-02-14 22:52:00,19.0,10.0,29.90,SSE,158,0.0,0.0,67,0.00,,,0.00,,2013-02-15 03:52:00,
2013-02-14 23:01:00,19.0,10.0,29.90,SSE,158,0.0,0.0,68,0.00,,,0.00,,2013-02-15 04:01:00,
2013-02-14 23:11:00,19.0,10.0,29.90,SSE,158,0.0,0.0,68,0.00,,,0.00,,2013-02-15 04:11:00,
2013-02-14 23:21:00,19.0,11.0,29.90,SSE,158,0.0,0.0,69,0.00,,,0.00,,2013-02-15 04:21:00,
2013-02-14 23:31:00,19.0,11.0,29.90,SSE,158,14.0,18.0,69,0.00,,,0.00,,2013-02-15 04:31:00,
2013-02-14 23:42:00,19.0,11.0,29.90,SSE,158,14.0,18.0,69,0.00,,,0.00,,2013-02-15 04:42:00,
2013-02-14 23:52:00,18.0,9.0,29.90,SSE,159,17.0,17.0,68,0.00,,,0.00,,2013-02-15 04:52:00,